TimeCDT,TemperatureF,Dew PointF,Humidity,Sea Level PressureIn,VisibilityMPH,Wind Direction,Wind SpeedMPH,Gust SpeedMPH,PrecipitationIn,Events,Conditions,WindDirDegrees,DateUTC
12:14 AM,44.6,35.6,71,29.77,10.0,North,5.8,-,N/A,,Clear,350,2012-10-14 05:14:00
12:33 AM,44.6,37.4,76,29.77,10.0,NNW,10.4,-,N/A,,Clear,330,2012-10-14 05:33:00
12:53 AM,46.4,35.6,66,29.77,3.0,NNW,12.7,-,N/A,,Haze,340,2012-10-14 05:53:00
1:13 AM,46.4,35.6,66,29.77,1.8,NNW,12.7,-,N/A,,Haze,340,2012-10-14 06:13:00
1:33 AM,44.6,33.8,66,29.77,1.5,NNW,13.8,-,N/A,,Haze,340,2012-10-14 06:33:00
1:54 AM,44.6,33.8,66,29.78,1.8,NNW,6.9,-,N/A,,Haze,330,2012-10-14 06:54:00
2:13 AM,42.8,33.8,70,29.80,1.8,NW,6.9,-,N/A,,Haze,320,2012-10-14 07:13:00
2:33 AM,42.8,32.0,66,29.79,1.5,NW,11.5,-,N/A,,Unknown,320,2012-10-14 07:33:00
2:53 AM,42.8,32.0,66,29.79,1.5,NNW,9.2,-,N/A,,Unknown,330,2012-10-14 07:53:00
3:14 AM,39.2,32.0,75,29.80,2.0,NW,10.4,-,N/A,,Haze,320,2012-10-14 08:14:00
3:33 AM,41.0,32.0,70,29.80,1.5,NW,10.4,-,N/A,,Haze,320,2012-10-14 08:33:00
3:53 AM,41.0,30.2,65,29.81,1.5,NW,11.5,-,N/A,,Haze,320,2012-10-14 08:53:00
4:13 AM,39.2,30.2,70,29.81,1.2,NNW,10.4,-,N/A,,Unknown,330,2012-10-14 09:13:00
4:33 AM,39.2,30.2,70,29.82,1.2,NNW,11.5,-,N/A,,Unknown,340,2012-10-14 09:33:00
4:53 AM,39.2,30.2,70,29.82,1.8,NNW,12.7,-,N/A,,Haze,340,2012-10-14 09:53:00
5:13 AM,39.2,30.2,70,29.81,1.5,NNW,11.5,-,N/A,,Unknown,330,2012-10-14 10:13:00
5:33 AM,39.2,30.2,70,29.82,1.2,NNW,11.5,18.4,N/A,,Unknown,330,2012-10-14 10:33:00
5:53 AM,39.2,30.2,70,29.83,1.8,NW,12.7,-,N/A,,Haze,310,2012-10-14 10:53:00
6:13 AM,39.2,30.2,70,29.84,1.5,NW,15.0,-,N/A,,Unknown,320,2012-10-14 11:13:00
6:33 AM,39.2,30.2,70,29.84,1.5,NNW,15.0,-,N/A,,Unknown,330,2012-10-14 11:33:00
6:53 AM,39.2,30.2,70,29.85,1.2,NNW,12.7,-,N/A,,Unknown,340,2012-10-14 11:53:00
7:14 AM,39.2,30.2,70,29.85,1.2,NNW,13.8,-,N/A,,Unknown,330,2012-10-14 12:14:00
7:33 AM,39.2,30.2,70,29.85,1.2,NNW,15.0,-,N/A,,Unknown,330,2012-10-14 12:33:00
7:54 AM,39.2,30.2,70,29.86,1.0,NNW,13.8,-,N/A,,Haze,330,2012-10-14 12:54:00
8:13 AM,39.2,30.2,70,29.86,0.8,NNW,11.5,-,N/A,,Haze,330,2012-10-14 13:13:00
8:33 AM,39.2,30.2,70,29.87,0.8,NNW,10.4,-,N/A,,Haze,330,2012-10-14 13:33:00
8:53 AM,39.2,30.2,70,29.87,1.0,NNW,15.0,-,N/A,,Haze,330,2012-10-14 13:53:00
9:13 AM,41.0,32.0,70,29.87,1.0,NNW,13.8,-,N/A,,Haze,330,2012-10-14 14:13:00
9:34 AM,42.8,32.0,66,29.88,1.0,NNW,18.4,-,N/A,,Haze,330,2012-10-14 14:34:00
9:53 AM,44.6,33.8,66,29.88,1.2,NW,18.4,23.0,N/A,,Haze,320,2012-10-14 14:53:00
10:13 AM,44.6,33.8,66,29.88,1.2,NW,18.4,24.2,N/A,,Haze,320,2012-10-14 15:13:00
10:34 AM,46.4,33.8,62,29.88,1.5,NW,18.4,-,N/A,,Haze,320,2012-10-14 15:34:00
10:53 AM,48.2,33.8,58,29.88,1.2,NW,15.0,-,N/A,,Haze,320,2012-10-14 15:53:00
11:14 AM,51.8,33.8,50,29.88,10.0,NNW,16.1,-,N/A,,Clear,330,2012-10-14 16:14:00
11:34 AM,53.6,33.8,47,29.88,10.0,NW,20.7,25.3,N/A,,Clear,320,2012-10-14 16:34:00
11:53 AM,53.6,33.8,47,29.88,10.0,NNW,19.6,26.5,N/A,,Clear,330,2012-10-14 16:53:00
12:13 PM,55.4,32.0,41,29.88,10.0,NNW,20.7,26.5,N/A,,Clear,330,2012-10-14 17:13:00
12:33 PM,55.4,30.2,38,29.89,10.0,NNW,21.9,27.6,N/A,,Clear,340,2012-10-14 17:33:00
12:53 PM,55.4,30.2,38,29.88,10.0,NNW,17.3,25.3,N/A,,Clear,330,2012-10-14 17:53:00
1:13 PM,57.2,30.2,36,29.88,10.0,NNW,18.4,25.3,N/A,,Clear,340,2012-10-14 18:13:00
1:33 PM,57.2,30.2,36,29.88,10.0,North,19.6,-,N/A,,Clear,350,2012-10-14 18:33:00
1:54 PM,59.0,28.4,31,29.88,10.0,NNW,18.4,26.5,N/A,,Clear,330,2012-10-14 18:54:00
2:13 PM,59.0,28.4,31,29.88,10.0,NNW,15.0,25.3,N/A,,Clear,340,2012-10-14 19:13:00
2:33 PM,59.0,28.4,31,29.88,10.0,NNW,17.3,24.2,N/A,,Clear,330,2012-10-14 19:33:00
3:13 PM,60.8,28.4,29,29.88,10.0,NNW,18.4,23.0,N/A,,Clear,340,2012-10-14 20:13:00
3:33 PM,60.8,30.2,31,29.88,10.0,NW,16.1,23.0,N/A,,Clear,320,2012-10-14 20:33:00
3:53 PM,60.8,30.2,31,29.88,10.0,NNW,16.1,21.9,N/A,,Clear,330,2012-10-14 20:53:00
4:14 PM,60.8,33.8,36,29.88,10.0,NW,17.3,20.7,N/A,,Clear,320,2012-10-14 21:14:00
4:33 PM,59.0,33.8,39,29.88,10.0,NW,13.8,-,N/A,,Clear,310,2012-10-14 21:33:00
4:53 PM,59.0,33.8,39,29.88,10.0,NW,13.8,20.7,N/A,,Clear,320,2012-10-14 21:53:00
5:13 PM,59.0,33.8,39,29.89,10.0,NW,16.1,20.7,N/A,,Clear,320,2012-10-14 22:13:00
5:33 PM,59.0,33.8,39,29.89,10.0,NW,16.1,19.6,N/A,,Clear,320,2012-10-14 22:33:00
5:53 PM,57.2,33.8,41,29.89,10.0,NW,11.5,-,N/A,,Clear,320,2012-10-14 22:53:00
6:13 PM,57.2,33.8,41,29.89,10.0,NW,10.4,-,N/A,,Clear,320,2012-10-14 23:13:00
6:33 PM,53.6,33.8,47,29.89,10.0,NW,9.2,-,N/A,,Clear,320,2012-10-14 23:33:00
6:53 PM,51.8,35.6,54,29.89,10.0,NW,5.8,-,N/A,,Clear,310,2012-10-14 23:53:00
7:13 PM,48.2,33.8,58,29.90,10.0,NW,8.1,-,N/A,,Clear,310,2012-10-15 00:13:00
7:33 PM,48.2,35.6,62,29.91,10.0,NW,8.1,-,N/A,,Clear,310,2012-10-15 00:33:00
7:54 PM,48.2,35.6,62,29.91,10.0,NW,6.9,-,N/A,,Clear,310,2012-10-15 00:54:00
8:13 PM,46.4,33.8,62,29.91,10.0,NW,6.9,-,N/A,,Clear,320,2012-10-15 01:13:00
8:33 PM,46.4,33.8,62,29.92,10.0,NNW,6.9,-,N/A,,Clear,330,2012-10-15 01:33:00
8:53 PM,44.6,33.8,66,29.92,10.0,NNW,5.8,-,N/A,,Clear,330,2012-10-15 01:53:00
9:14 PM,42.8,32.0,66,29.92,10.0,North,6.9,-,N/A,,Clear,350,2012-10-15 02:14:00
9:33 PM,41.0,32.0,70,29.92,10.0,NNW,4.6,-,N/A,,Clear,340,2012-10-15 02:33:00
9:53 PM,42.8,32.0,66,29.92,10.0,NNW,4.6,-,N/A,,Clear,340,2012-10-15 02:53:00
10:13 PM,39.2,30.2,70,29.93,10.0,NNW,3.5,-,N/A,,Clear,340,2012-10-15 03:13:00
10:33 PM,39.2,30.2,70,29.93,10.0,NNW,4.6,-,N/A,,Clear,340,2012-10-15 03:33:00
10:54 PM,39.2,32.0,75,29.93,10.0,NNW,4.6,-,N/A,,Clear,340,2012-10-15 03:54:00
11:14 PM,35.6,30.2,81,29.93,10.0,West,5.8,-,N/A,,Clear,260,2012-10-15 04:14:00
11:33 PM,35.6,30.2,81,29.94,10.0,West,8.1,-,N/A,,Clear,270,2012-10-15 04:33:00
11:53 PM,35.6,30.2,81,29.94,10.0,West,3.5,-,N/A,,Clear,270,2012-10-15 04:53:00